Simultaneous Nadir Overpasses (SNOs) Predictions

Prediction of SNOs between METOP-B and NOAA-19 Satellite Orbit:

Table of predicted SNOs for the next 14.0 days since TLE Epoch: 10/26/2013
Index Date (METOP-B) Time (METOP-B) Lat,Lon (METOP-B) SZA (METOP-B ) Date (NOAA-19) Time (NOAA-19) Lat,Lon (NOAA-19) SZA (NOAA-19 ) Distance(km) Time Diff (sec)
1 11/01/2013 21:32:58 73.62,-149.21 88.24 11/01/2013 21:31:44 73.62,-149.39 88.24 5.49 74
2 11/01/2013 22:23:41 -73.54, 17.92 91.84 11/01/2013 22:22:47 -73.56, 18.00 91.82 3.17 54
3 11/01/2013 23:14:21 73.55,-174.72 88.19 11/01/2013 23:13:47 73.56,-174.76 88.20 1.57 34
4 11/02/2013 00:05:03 -73.52, -7.47 91.84 11/02/2013 00:04:51 -73.54, -7.48 91.81 3.11 12
5 11/02/2013 00:55:43 73.53, 159.88 88.18 11/02/2013 00:55:50 73.50, 159.87 88.16 3.11 7
6
